Location: Lussas
(44.6119°N, 4.4726°E)
Time: 13:52:19
(UTC+00:00)

USA 238 - Pass Details

Date: 26 November 2020
Orbit: 996 x 1216 km, 63.4° (Epoch: 22 January)

Event Time Altitude Azimuth Distance (km) Brightness Sun altitude
Exits shadow 03:18:35 56° 60° (ENE) 1,372 4.3 -37.7°
Drops below altitude 10° 03:25:31 10° 124° (SE) 3,129 6.6 -36.4°
Sets 03:28:22 0° 128° (SE) 4,106 7.3 -35.9°
